www.pogodaiklimat.ru

Погода и климат >> Архив погоды >> Россия >> Чукотка >> Айон Остров


ПОГОДА на Айон Острове

  • Прогноз погоды на Айон Острове
  • Монитор погоды на Айон Острове

АРХИВ ПОГОДЫ на Айон Острове

Время (UTC), дата Ветер
(напр.,м/с)
 
Видим.   Явления Облачность Т
(С)
Тd
(С)
f
(%)
Тe
(С)
Тes
(С)
Комфортность P
(гПа)
Po
(гПа)
Тmin
(С)
Tmax
(С)
R
(мм)
R24
(мм)
S
(см)
09 18.06 СВ 3-5
{7}
20 км 9/0
[Ac trans Ci fib]
+5.6 +3.0 83 +2 +3 1012.3 1010.6 +17.1
12 18.06 ЮВ 2-2
{7}
20 км 10/0
[Ac und]
+5.4 +3.0 85 +3 +3 1012.8 1011.1
15 18.06 СВ 4-6
{6}
20 км 10/0
[Ac und]
+2.4 +0.9 90 -3 -2 1012.3 1010.6
18 18.06 СВ 4-5
{6}
20 км 10/0
[Ac und]
+1.8 +0.5 91 -3 -3 1012.8 1011.1
21 18.06 СВ 4-5
{5}
20 км 9/0
[Ac trans]
+3.8 +1.6 86 -1 +1 1013.1 1011.4 +1.7
00 19.06 С 3-5
{5}
20 км 8/0
[Ac trans]
+2.5 +0.6 87 -2 +3 1013.7 1012.0
03 19.06 С 3-4
{6}
20 км 4/0
[Ac trans]
+2.6 +0.6 87 -2 +4 1014.0 1012.3
06 19.06 СВ 3-6
{7}
20 км 4/0
[Ac trans]
+2.9 +0.9 87 -1 +2 1014.0 1012.3
09 19.06 СВ 4-6
{7}
20 км 3/0
[Ac trans]
+2.5 +0.9 89 -2 -2 1014.5 1012.8 +4.3
12 19.06 З 2-2
{6}
20 км 3/0
[Ac trans]
+1.0 -0.1 92 -3 -2 1015.2 1013.5
15 19.06 ЮВ 1-2
{2}
20 км 4/0
[Ac trans Ci fib]
+2.6 +1.1 90 +1 +1 1015.7 1014.0
18 19.06 С 1-2
{3}
20 км 3/0
[Ci fib]
+2.5 +0.7 88 +1 +3 1016.5 1014.8
21 19.06 СВ 3-5
{5}
20 км 3/0
[Ci fib]
+7.1 +3.3 77 +4 +9 1016.2 1014.5 +0.3
00 20.06 В 6-9
{9}
20 км ясно +11.8 +3.3 56 +9 +13 1016.2 1014.5
03 20.06 В 6-8
{9}
20 км ясно +14.2 +3.7 49 +12 +16 1015.3 1013.7
06 20.06 В 6-10
{10}
20 км ясно +12.6 +0.4 43 +10 +12 1014.6 1013.0
09 20.06 В 5-8
{11}
20 км ясно +8.5 +0.2 56 +5 +6 1014.5 1012.8 +14.9
12 20.06 В 5-9
{10}
20 км 3/0
[Ac trans Ci fib]
+5.1 +0.4 72 +1 +1 1014.5 1012.8
15 20.06 В 5-8
{9}
20 км 3/0
[Ci fib]
+3.4 +0.5 81 -2 -2 1014.2 1012.5
18 20.06 В 5-7
{8}
20 км ясно +5.7 +1.8 76 +1 +3 1014.1 1012.4
21 20.06 В 5-7
{8}
20 км 3/0
[Ac trans]
+10.0 +4.1 67 +7 +10 1014.8 1013.1 +3.2
00 21.06 В 6-8
{9}
20 км 4/0
[Ac trans]
+9.5 +4.7 72 +6 +9 1015.9 1014.2
03 21.06 СВ 7-9
{11}
20 км 3/0
[Ac trans Ci fib]
+8.2 +4.4 77 +4 +6 1016.4 1014.7
06 21.06 В 8-11
{12}
20 км 4/0
[Ac trans Ci fib]
+9.5 +5.3 75 +5 +6 1016.2 1014.5
09 21.06 СВ 8-12
{13}
20 км 3/0
[Ac trans Ci fib]
+4.8 +1.4 79 -1 -1 1017.7 1016.0 +12.1
12 21.06 В 6-8
{12}
20 км 1/0
[Ac trans]
+5.3 +0.5 71 +1 +1 1019.4 1017.7
15 21.06 СВ 7-9
{10}
20 км 1/0
[Ac trans]
+2.9 +0.1 82 -3 -3 1020.4 1018.7
18 21.06 СВ 8-11
{12}
4000 м дымка 10/0
[Ac und]
+0.8 +0.4 97 -7 -7 1021.8 1020.0
21 21.06 СВ 10-13
{13}
20 км 10/10 180 м
[St]
+1.7 +0.3 90 -6 -6 1022.6 1020.8 +0.8
00 22.06 СВ 10-13
{16}
20 км 10/10 180 м
[St]
+2.0 +0.1 87 -6 -6 1023.1 1021.3
03 22.06 СВ 11-15
{16}
20 км 8/6 210 м
[St Ac trans]
+3.0 +0.3 82 -4 -4 1023.1 1021.3
06 22.06 СВ 10-14
{16}
20 км 9/8 180 м
[St Ac trans]
+2.2 +0.2 87 -5 -5 1023.2 1021.4
09 22.06 В 10-15
{17}
20 км 10/8 180 м
[St Ac und]
+0.7 -0.4 92 -7 -7 1023.5 1021.7 +3.5
12 22.06 В 9-13
{17}
20 км 8/4 200 м
[St Ac trans]
+0.3 -1.0 91 -8 -8 1024.1 1022.3
15 22.06 В 7-11
{15}
20 км 4/3 200 м
[St Ci fib]
+0.3 -1.0 91 -7 -7 1024.6 1022.8
18 22.06 В 8-12
{15}
20 км 4/0
[Ac trans Ci fib]
+2.0 -0.6 83 -5 -5 1024.8 1023.0
21 22.06 В 7-10
{12}
20 км 4/0
[Ac trans Ci fib]
+3.8 -0.2 75 -2 -0 1025.2 1023.5 0.0
00 23.06 В 7-12
{13}
20 км 3/0
[Ci fib]
+6.3 +0.6 67 +2 +4 1024.9 1023.2
03 23.06 В 8-12
{13}
20 км 3/0
[Ci fib]
+7.0 +0.7 64 +2 +4 1024.4 1022.7
06 23.06 В 7-11
{12}
20 км 4/0
[Ci fib]
+7.2 +0.9 64 +3 +4 1023.7 1022.0
09 23.06 В 6-9
{11}
20 км 4/0
[Ac trans Ci fib]
+4.4 -0.2 72 -1 -0 1023.9 1022.2 +7.6
12 23.06 В 6-9
{10}
20 км 4/0
[Ac trans Ci fib]
+2.3 -1.2 78 -4 -4 1024.0 1022.2
15 23.06 В 4-6
{9}
20 км 1/0
[Ac trans]
+2.1 -1.0 80 -3 -3 1024.0 1022.2
18 23.06 В 4-5
{7}
20 км 1/0
[Ac trans]
+7.2 +0.6 63 +4 +5 1024.1 1022.4
21 23.06 В 5-7
{7}
20 км 3/0
[Ci fib]
+13.1 +2.0 47 +11 +15 1024.2 1022.5 +1.4
00 24.06 ЮВ 7-10
{11}
20 км 3/0
[Ac trans Ci fib]
+19.0 0.0 28 +19 +21 1024.4 1022.8
03 24.06 В 6-9
{10}
20 км 3/0
[Ac trans Ci fib]
+17.4 +4.0 41 +17 +20 1024.6 1022.9
06 24.06 ЮВ 8-10
{10}
20 км ясно +19.1 +4.0 37 +19 +20 1024.4 1022.8
09 24.06 В 4-6
{11}
20 км ясно +12.9 +5.1 59 +11 +12 1025.1 1023.4 +19.6
12 24.06 В 4-6
{7}
20 км ясно +8.0 +3.4 73 +5 +5 1025.7 1024.0
15 24.06 В 4-4
{6}
20 км ясно +6.3 +2.3 76 +3 +3 1025.8 1024.1
18 24.06 В 3-4
{4}
20 км ясно +8.0 +2.0 66 +6 +7 1025.8 1024.1
21 24.06 В 4-6
{6}
20 км ясно +12.7 +2.5 50 +11 +16 1025.8 1024.1 +5.7
00 25.06 В 5-7
{8}
20 км ясно +13.7 +2.6 47 +12 +18 1025.1 1023.4
03 25.06 В 7-11
{11}
20 км 3/0
[Ci fib]
+13.4 +0.7 42 +11 +14 1024.2 1022.5
06 25.06 В 7-9
{12}
20 км 4/0
[Ac trans Ci fib]
+11.6 +0.2 45 +9 +10 1023.5 1021.8

 

Местоположение метеостанции Айон Остров (Чукотка, Россия): широта 69.93 долгота 167.90 высота над уровнем моря 14 м.

В архиве по умолчанию представлена погода на Айон Острове за последнюю неделю. Архивные данные за месяц целиком и за предыдущие месяцы, начиная с января 2011 года, Вы можете получить, выбрав интересующий диапазон дат из раскрывающегося списка и нажав кнопку "Ввод!".


*Определитесь, кто Вы:
робот инопланетянин человек

Внимание! Время в таблицах - всемирное. Для получения местного времени необходимо прибавить поправку, которая равна 12 ч.

Смотрите также архив погоды в соседних городах и на ближайших метеорологических станциях:

Погода в Раучуе (Чукотка, Россия) (72 км)
Погода в Певеке (Чукотка, Россия) (92 км)
Погода в Валькаркае (Чукотка, Россия) (115 км)
Погода на 21 км (Чукотка, Россия) (117 км)
Погода в Чауне (Чукотка, Россия) (160 км)
Погода в Комсомольской (Чукотка, Россия) (211 км)
Погода в Билибино (Чукотка, Россия) (217 км)
Погода в Бухте Амбарчик (Чукотка, Россия) (218 км)
Погода в Островном (Чукотка, Россия) (252 км)
Погода в Паляваам-Глубокой (Чукотка, Россия) (257 км)

Пояснения к столбцам:

Ветер - указаны скорость ветра в м/с - средняя за 10 мин, порывы в срок и между сроками (в фигурных скобках) и направление, откуда дует ветер: С - северный, СВ - северо-восточный, В - восточный, ЮВ - юго-восточный, Ю - южный, ЮЗ - юго-западный, З - западный, СЗ - северо-западный.
Видимость - горизонтальная дальность видимости в метрах или километрах. При видимости от 1 до 10 км при отсутствии осадков обычно наблюдается дымка, при ухудшении видимости до 1 км и менее - туман. В сухую погоду видимость может ухудшаться дымом, пылью или мглою.
Явления - указаны атмосферные явления, наблюдавшиеся в срок или в последний час перед сроком; фигурными скобками обозначены явления, наблюдавшиеся между сроками (за 1-3 часа до срока); квадратными скобками обозначены град или гололедные отложения с указанием их диаметра в мм.
Облачность - указаны через наклонную черту общая и нижняя облачность в баллах и высота нижней границы облаков в метрах; квадратными скобками обозначены формы облаков: Ci - перистые, Cs - перисто-слоистые, Cc - перисто-кучевые, Ac - высококучевые, As - высокослоистые, Sc - слоисто-кучевые, Ns - слоисто-дождевые, Cu - кучевые, Cb - кучево-дождевые. Подробнее классификацию облаков см. в Атласе облаков (PDF).
T - Температура воздуха - температура, измеренная на высоте 2 м над землей.
Td - Температура точки росы - температура, при понижении до которой содержащийся в воздухе водяной пар достигнет насыщения.
f - Относительная влажность воздуха - влажноcть воздуха, измеренная на высоте 2 м над землей.
Te - Эффективная температура - температура, которую ощущает одетый по сезону человек в тени. Характеристика душности погоды. При расчете учитывается влияние влажности воздуха и скорости ветра на теплоощущения человека.
Tes - Эффективная температура на солнце - температура, которую ощущает человек, с поправкой на солнечный нагрев. Характеристика знойности погоды. Зависит от высоты солнца над горизонтом, облачности и скорости ветра. Ночью, в пасмурную погоду, а также при ветре 12 м/с и более поправка равна нулю.
P - Атмосферное давление - приведенное к уровню моря атмосферное давление.
Po - Атмосферное давление - измеренное на уровне метеостанции атмосферное давление.
Tmin - Минимальная температура - минимум температуры воздуха на высоте 2 м над землей.
Tmax - Максимальная температура - максимум температуры воздуха на высоте 2 м над землей.
R - Количество осадков - Количество выпавших осадков за период времени, мм. При наведении курсора мыши на число - период времени, за который выпало указанное количество осадков.
R24 - Количество осадков - Количество выпавших осадков за 24 часа, мм.
S - Снежный покров - Высота снежного покрова, см. При наведении курсора мыши на число - состояние снежного покрова и степень покрытия местности в баллах.